This demonstration page uses our WeatherBlox Daily Observations layout. Learn more.

Left ArrowRight Arrow

40.92501, -98.34201

Hourly Observations for August 9, 2020

Temp ( °F °C ) Dew Point ( °F °C ) Humidity (%) Winds ( mph kmh ) Pressure ( in mb ) Visibility ( mi km ) Precip ( " mm )
12:53 am 00:53 Clear 79 26.1 74 23.3 85 85 SSE 7 11 29.88 1012 10 16 0.00 0.00
1:53 am 01:53 Mostly Clear 79 26.1 74 23.3 85 85 N 9 15 29.88 1012 9 14 0.00 0.00
2:48 am 02:48 Mostly Cloudy with Nearby Thunderstorms 77 25 72 22 83 83 NNE 12 19 29.84 1010 8 13 0.00 0.00
2:53 am 02:53 Mostly Cloudy with Nearby Thunderstorms 77 25 72 22.2 85 85 NNE 5 7 29.91 1013 6 10 0.00 0.00
3:13 am 03:13 Mostly Cloudy with Light Rain 76 24.4 73 22.8 91 91 NE 14 22 29.82 1010 4 6 0.07 1.78
3:20 am 03:20 Mostly Cloudy with Nearby Thunderstorms 76 24.4 72 22.2 88 88 ENE 12 19 29.82 1010 7 11 0.07 1.78
3:35 am 03:35 Mostly Clear 75 23.9 70 21.1 84 84 E 12 19 29.82 1010 9 14 0.07 1.78
3:53 am 03:53 Clear 73 22.8 69 20.6 87 87 ENE 9 15 29.83 1010 10 16 0.07 1.78
4:53 am 04:53 Clear 73 22.8 69 20.6 87 87 ESE 13 20 29.83 1010 9 14 0.00 0.00
5:08 am 05:08 Partly Cloudy with Mist and Fog 74 23.3 71 21.7 91 91 ESE 12 19 29.80 1009 6 10 0.00 0.00
5:16 am 05:16 Mostly Cloudy with Mist and Fog 75 23.9 72 22.2 90 90 ESE 12 19 29.79 1009 4 6 0.00 0.00
5:32 am 05:32 Partly Cloudy with Mist and Fog 75 23.9 72 22.2 90 90 SE 12 19 29.79 1009 4 6 0.00 0.00
5:53 am 05:53 Clear 75 23.9 72 22.2 90 90 SE 8 13 29.83 1010 7 11 0.00 0.00
6:51 am 06:51 Sunny with Mist and Fog 73 23 70 21 89 89 N 6 9 29.83 1010 2 3 0.00 0.00
6:52 am 06:52 Sunny with Mist and Fog 73 22.8 70 21.1 90 90 N 6 9 29.87 1011 2 3 0.00 0.00
7:24 am 07:24 Sunny with Mist and Fog 72 22.2 69 20.6 91 91 NE 5 7 29.85 1011 2 3 0.00 0.00
7:53 am 07:53 Hazy 75 23.9 70 21.1 84 84 SE 5 7 29.87 1012 6 10 0.00 0.00
8:53 am 08:53 Sunny 78 25.6 68 20 71 71 Calm 29.90 1013 10 16 0.00 0.00
9:53 am 09:53 Sunny 81 27.2 68 20 65 65 S 14 22 29.86 1011 10 16 0.00 0.00
10:53 am 10:53 Sunny 84 28.9 68 20 59 59 S 9 15 29.85 1011 10 16 0.00 0.00
11:53 am 11:53 Sunny 86 30 69 20.6 57 57 SSE 12 19 29.85 1011 10 16 0.00 0.00
12:53 pm 12:53 Sunny 88 31.1 70 21.1 55 55 S 8 13 29.84 1010 10 16 0.00 0.00
1:53 pm 13:53 Sunny 90 32.2 71 21.7 54 54 SSE 8 13 29.83 1010 10 16 0.00 0.00
2:53 pm 14:53 Sunny 90 32.2 74 23.3 59 59 SE 15 24 29.81 1010 10 16 0.00 0.00
3:53 pm 15:53 Sunny 91 32.8 75 23.9 59 59 SE 14 22 29.80 1009 10 16 0.00 0.00
4:53 pm 16:53 Sunny 93 33.9 73 22.8 52 52 SSW 9 15 29.80 1009 10 16 0.00 0.00
5:53 pm 17:53 Sunny 92 33.3 70 21.1 49 49 SSW 9 15 29.80 1009 10 16 0.00 0.00
6:53 pm 18:53 Sunny 92 33.3 69 20.6 47 47 S 6 9 29.80 1009 10 16 0.00 0.00
7:53 pm 19:53 Sunny 88 31.1 73 22.8 61 61 SSE 7 11 29.81 1009 10 16 0.00 0.00
8:53 pm 20:53 Clear 83 28.3 72 22.2 70 70 SSE 7 11 29.82 1010 10 16 0.00 0.00
9:53 pm 21:53 Clear 81 27.2 72 22.2 74 74 SE 5 7 29.85 1011 10 16 0.00 0.00
10:53 pm 22:53 Clear 79 26.1 73 22.8 82 82 ESE 6 9 29.84 1011 10 16 0.00 0.00
11:53 pm 23:53 Partly Cloudy 79 26.1 73 22.8 82 82 ESE 7 11 29.83 1010 10 16 0.00 0.00

Powered by AerisWeather